Location: Unspecified
(0.0000°N, 0.0000°E)
Time: 11:57:44
(UTC+00:00)

Vanguard 2 - Pass Details

Date: 11 December 2017
Orbit: 554 x 2939 km, 32.9° (Epoch: 24 June)

Event Time Altitude Azimuth Distance (km) Brightness Sun altitude
Exits shadow 01:06:12 25° 136° (SE) 3,300 10.8 -60.9°
Drops below altitude 10° 01:10:58 10° 132° (SE) 4,737 11.8 -60.2°
Sets 01:15:35 0° 129° (SE) 6,086 12.6 -59.5°
